[[[{"header":{"parameterUnit":"kt","parameterCategory":2,"dx":1,"dy":1,"la1":30.253999710083008,"la2":30.299108505249023,"lo1":-89.0895004272461,"lo2":-89.04439544677734,"nx":28,"ny":28,"refTime":"2022-10-21T21:00:00:Z","depth":0,"parameterNumber":1,"parameterNumberName":"U-component_of_WINDS"},"data":[-3.5465,-3.5515,-3.5532,-3.5597,-3.5623,-3.5671,-3.5693,-3.5724,-3.5754,-3.5814,-3.5852,-3.5875,-3.5911,-3.5962,-3.6005,-3.6014,-3.6031,-3.6038,-3.6047,-3.6001,-3.5996,-3.5991,-3.5979,-3.6041,-3.6041,-3.6092,-3.6093,-3.6093,-3.5434,-3.5459,-3.5498,-3.5547,-3.5581,-3.5584,-3.5624,-3.5652,-3.5695,-3.5732,-3.5769,-3.5824,-3.587,-3.5905,-3.5952,-3.5978,-3.5982,-3.5989,-3.5987,-3.5993,-3.5945,-3.5932,-3.5985,-3.5985,-3.5985,-3.5985,-3.5985,-3.5985,-3.538,-3.5409,-3.5447,-3.549,-3.5519,-3.5552,-3.5583,-3.5608,-3.5647,-3.5697,-3.5709,-3.5758,-3.5798,-3.5862,-3.5888,-3.5928,-3.5923,-3.5936,-3.5939,-3.5942,-3.5943,-3.5869,-3.5937,-3.5937,-3.5937,-3.5937,-3.5937,0,-3.5346,-3.5357,-3.5395,-3.5438,-3.5469,-3.5504,-3.5539,-3.5559,-3.5588,-3.5619,-3.5665,-3.5695,-3.5754,-3.58,-3.5848,-3.5872,-3.5879,-3.5881,-3.589,-3.5884,-3.5874,-3.588,-3.5801,-3.5878,-3.5878,-3.5878,-3.5877,-3.5877,-3.5293,-3.5325,-3.5372,-3.5396,-3.5418,-3.5458,-3.5485,-3.5508,-3.5535,-3.5582,-3.5607,-3.5653,-3.5691,-3.5764,-3.5794,-3.5838,-3.5842,-3.587,-3.5848,-3.5843,-3.5842,-3.584,-3.5844,-3.5873,-3.5873,-3.5874,-3.5874,0,-3.5262,-3.5287,-3.5341,-3.5384,-3.5396,-3.5428,-3.5466,-3.5496,-3.5517,-3.5562,-3.5574,-3.5608,-3.5653,-3.5678,-3.5735,-3.5747,-3.5805,-3.5807,-3.5792,-3.5793,-3.5821,-3.5818,-3.5905,-3.5919,-3.5855,-3.5856,-3.5856,0,-3.5227,-3.5267,-3.5301,-3.5331,-3.5378,-3.5399,-3.5445,-3.5467,-3.55,-3.5535,-3.5546,-3.558,-3.5606,-3.5644,-3.5662,-3.5713,-3.5724,-3.5736,-3.574,-3.5734,-3.5733,-3.5748,-3.5745,-3.5747,-3.5747,-3.5746,-3.5746,0,-3.5175,-3.524,-3.5289,-3.5308,-3.5357,-3.538,-3.5402,-3.5437,-3.5463,-3.5501,-3.5518,-3.5561,-3.5584,-3.5618,-3.5639,-3.5624,-3.5703,-3.5686,-3.5715,-3.5714,-3.5729,-3.5728,-3.5801,-3.5745,-3.5745,-3.5745,-3.5745,0,-3.5149,-3.5185,-3.5252,-3.5293,-3.5309,-3.5341,-3.5384,-3.5417,-3.5454,-3.5467,-3.5497,-3.5506,-3.5552,-3.5534,-3.5598,-3.5572,-3.5595,-3.561,-3.5613,-3.5617,-3.5596,-3.5633,-3.57,-3.5707,-3.5624,-3.5623,-3.5622,0,-3.5084,-3.5157,-3.5174,-3.5237,-3.5274,-3.5283,-3.5319,-3.5351,-3.537,-3.5405,-3.5427,-3.5467,-3.5459,-3.5474,-3.5503,-3.5527,-3.5561,-3.5523,-3.5575,-3.5577,-3.5564,-3.5627,-3.563,-3.5682,-3.5609,-3.5611,-3.5612,0,-3.5035,-3.5092,-3.5102,-3.5124,-3.5168,-3.5198,-3.524,-3.5283,-3.5306,-3.534,-3.5376,-3.5432,-3.5428,-3.5453,-3.5465,-3.5493,-3.5539,-3.5485,-3.5486,-3.5494,-3.5605,-3.5608,-3.5616,-3.5541,-3.5542,-3.5544,-3.5602,0,-3.4992,-3.503,-3.5057,-3.5104,-3.5131,-3.5171,-3.5194,-3.522,-3.5228,-3.5247,-3.53,-3.5331,-3.5375,-3.5391,-3.5398,-3.5455,-3.5449,-3.5444,-3.5426,-3.5467,-3.5487,-3.5495,-3.5395,-3.5395,-3.5394,-3.5394,0,0,-3.4923,-3.4978,-3.4994,-3.5033,-3.5057,-3.5064,-3.5104,-3.5128,-3.5176,-3.5193,-3.5184,-3.5266,-3.5292,-3.5354,-3.5368,-3.5386,-3.5398,-3.5382,-3.5447,-3.5453,-3.5459,-3.5479,-3.5487,-3.5394,-3.5394,-3.5393,-3.5393,0,-3.4911,-3.4935,-3.4974,-3.4999,-3.5037,-3.5054,-3.5063,-3.5102,-3.5115,-3.5166,-3.517,-3.5205,-3.5269,-3.5296,-3.5318,-3.5376,-3.5377,-3.5388,-3.5411,-3.5443,-3.545,-3.5455,-3.5477,-3.5484,-3.5393,-3.5393,-3.5393,0,-3.4867,-3.4895,-3.4915,-3.4968,-3.4992,-3.5029,-3.5017,-3.5056,-3.5084,-3.5088,-3.5138,-3.5158,-3.5195,-3.525,-3.5275,-3.5267,-3.5356,-3.5332,-3.5334,-3.5337,-3.537,-3.5377,-3.5384,-3.5296,-3.5296,-3.5295,0,0,-3.4853,-3.4888,-3.4924,-3.4967,-3.4982,-3.5007,-3.5028,-3.5037,-3.5069,-3.5082,-3.5107,-3.5139,-3.5177,-3.5201,-3.5238,-3.5294,-3.5304,-3.5319,-3.5323,-3.5327,-3.5332,-3.5365,-3.5372,-3.5294,-3.5293,-3.5293,0,0,-3.4847,-3.4889,-3.489,-3.4943,-3.4973,-3.501,-3.5036,-3.5039,-3.5073,-3.5071,-3.5088,-3.5097,-3.5149,-3.5168,-3.5144,-3.5232,-3.5214,-3.5221,-3.5217,-3.5223,-3.5227,-3.5221,-3.5134,0,0,0,0,0,-3.4845,-3.4884,-3.4885,-3.4897,-3.4962,-3.501,-3.5019,-3.5033,-3.5021,-3.5042,-3.5063,-3.5062,-3.5159,-3.5138,-3.515,-3.5176,-3.5272,-3.5276,-3.528,-3.5288,-3.5294,-3.5299,0,0,0,0,0,0,-3.485,-3.4864,-3.4884,-3.4922,-3.4937,-3.5009,-3.4991,-3.4996,-3.5019,-3.5018,-3.5058,-3.5063,-3.5077,-3.5132,-3.5143,-3.5168,-3.5131,-3.5274,-3.5277,-3.528,-3.529,-3.5295,-3.53,0,0,0,0,0,-3.4854,-3.4865,-3.4966,-3.4922,-3.4935,-3.4964,-3.499,-3.4994,-3.5012,-3.5044,-3.505,-3.5021,-3.5077,-3.5087,-3.5139,-3.5163,-3.5124,-3.5127,-3.5276,-3.5278,-3.5281,-3.5293,0,0,0,0,0,0,-3.4857,-3.487,-3.4969,-3.4973,-3.4907,-3.496,-3.4969,-3.4992,-3.5037,-3.5042,-3.5008,-3.5006,-3.5078,-3.5086,-3.5093,-3.516,-3.5118,-3.5122,-3.5124,-3.5278,-3.528,-3.5281,0,0,0,0,0,0,-3.4864,-3.4874,-3.4971,-3.4952,-3.4955,-3.4956,-3.4964,-3.5009,-3.5037,-3.4998,-3.4998,-3.5007,-3.5067,-3.5085,-3.5091,-3.5161,-3.5113,-3.5117,-3.512,-3.5121,-3.5279,-3.5281,0,0,0,0,0,0,-3.4868,-3.4877,-3.4951,-3.4953,-3.4955,-3.5007,-3.4997,-3.5063,-3.502,-3.4996,-3.5017,-3.5015,-3.5066,-3.5072,-3.5089,-3.5157,-3.516,-3.5113,-3.5116,-3.5118,-3.5119,0,0,0,0,0,0,0,-3.4872,-3.4811,-3.4942,-3.4954,-3.4956,-3.5015,-3.5017,-3.5018,-3.502,-3.5019,-3.5017,-3.5016,-3.5091,-3.5095,-3.51,-3.5153,0,0,-3.5113,-3.5115,0,0,0,0,0,0,0,0,-3.4807,-3.481,-3.4942,-3.4943,-3.4944,-3.5015,-3.5016,-3.5017,-3.502,-3.5019,-3.5018,-3.5017,-3.5092,-3.5096,-3.5099,0,0,0,0,0,0,0,0,0,0,0,0,0,0,0,-3.4942,-3.4943,0,-3.5016,-3.5016,-3.5017,-3.502,-3.5019,-3.5018,-3.5017,-3.5093,-3.5096,-3.5099,0,0,0,0,0,0,0,0,0,0,0,0,0,0,0,0,0,0,0,0,0,0,0,0,0,0,0,0,0,0,0,0,0,0,0,0,0,0,0,0,0,0,0,0,0,0,0,0,0,0,0,0,0,0,0,0,0,0,0,0,0,0,0,0,0,0,0,0,0]}],[{"header":{"parameterUnit":"kt","parameterCategory":2,"dx":1,"dy":1,"la1":30.253999710083008,"la2":30.299108505249023,"lo1":-89.0895004272461,"lo2":-89.04439544677734,"nx":28,"ny":28,"refTime":"2022-10-21T21:00:00:Z","depth":0,"parameterNumber":2,"parameterNumberName":"V-component_of_WINDS"},"data":[4.8653,4.8622,4.8592,4.8543,4.8507,4.8467,4.8443,4.8408,4.8371,4.8319,4.8283,4.8246,4.8195,4.8142,4.81,4.8083,4.8067,4.8082,4.8059,4.8026,4.8019,4.8012,4.8017,4.8079,4.8079,4.8097,4.8097,4.8097,4.864,4.8605,4.857,4.8514,4.8483,4.8452,4.8404,4.8379,4.8343,4.8297,4.8259,4.8209,4.8163,4.8104,4.8054,4.8038,4.8017,4.8026,4.8025,4.8017,4.7981,4.7987,4.8044,4.8044,4.8044,4.8044,4.8044,4.8044,4.8608,4.859,4.8538,4.8498,4.8461,4.8423,4.8399,4.8355,4.8317,4.8262,4.8229,4.8185,4.813,4.805,4.8014,4.7979,4.7961,4.7959,4.7957,4.7957,4.7963,4.7943,4.7968,4.7968,4.7968,4.7968,4.7967,0,4.8573,4.8549,4.851,4.8464,4.8432,4.8392,4.8348,4.8333,4.8262,4.8233,4.8189,4.8156,4.8092,4.8044,4.7987,4.7948,4.7905,4.7897,4.7895,4.7909,4.7933,4.7919,4.7862,4.7895,4.7894,4.7893,4.7893,4.7893,4.8537,4.8519,4.8446,4.8424,4.8391,4.8355,4.8326,4.8265,4.8236,4.8172,4.8157,4.8109,4.8065,4.7996,4.7936,4.7886,4.7863,4.788,4.7854,4.7873,4.7861,4.7862,4.786,4.7884,4.7886,4.7886,4.7887,0,4.852,4.8465,4.8425,4.8352,4.8333,4.8317,4.8253,4.823,4.8186,4.8148,4.8136,4.8064,4.8018,4.7955,4.7888,4.7856,4.7828,4.7808,4.7848,4.784,4.7848,4.7847,4.7884,4.7886,4.7823,4.7824,4.7824,0,4.8466,4.8443,4.8362,4.8341,4.8315,4.8252,4.8227,4.8185,4.8134,4.8103,4.8047,4.8019,4.7941,4.7904,4.7856,4.7822,4.7809,4.7781,4.7768,4.7784,4.7788,4.7762,4.7758,4.774,4.774,4.774,4.7739,0,4.8443,4.837,4.8337,4.8311,4.8227,4.8212,4.8176,4.8117,4.8086,4.8037,4.8017,4.7964,4.7933,4.7893,4.7832,4.7817,4.7787,4.7753,4.7758,4.776,4.775,4.7751,4.7804,4.7739,4.7739,4.7739,4.7739,0,4.8387,4.8341,4.8301,4.823,4.8212,4.8189,4.8133,4.8098,4.8039,4.8007,4.7967,4.7918,4.7882,4.7854,4.7803,4.7801,4.7775,4.7745,4.7744,4.7732,4.7701,4.7737,4.7797,4.78,4.773,4.773,4.773,0,4.8377,4.8319,4.8263,4.8225,4.8189,4.8127,4.81,4.8048,4.8003,4.7965,4.7914,4.7869,4.7834,4.781,4.7794,4.7737,4.774,4.7736,4.7677,4.7676,4.7694,4.7749,4.7772,4.7792,4.7728,4.7728,4.7728,0,4.8359,4.8255,4.8252,4.8218,4.8139,4.8106,4.8076,4.8017,4.7995,4.7941,4.7911,4.7845,4.7817,4.7776,4.7728,4.7715,4.7737,4.7683,4.768,4.7694,4.7721,4.7744,4.7747,4.7708,4.7708,4.7708,4.7726,0,4.8289,4.825,4.8239,4.8164,4.8129,4.8099,4.8029,4.8002,4.7961,4.7912,4.7867,4.7801,4.7736,4.7722,4.7679,4.7668,4.7658,4.7626,4.7588,4.7626,4.763,4.7632,4.759,4.7588,4.7587,4.7586,0,0,4.8291,4.8233,4.8168,4.8134,4.81,4.8032,4.8006,4.7964,4.7879,4.7856,4.7837,4.7733,4.7678,4.7629,4.7636,4.7609,4.7599,4.7587,4.7609,4.7612,4.7615,4.7621,4.7624,4.7583,4.7583,4.7582,4.7582,0,4.8249,4.8201,4.8176,4.8131,4.806,4.8009,4.8004,4.7919,4.7885,4.7839,4.7778,4.7742,4.7657,4.7608,4.7572,4.7594,4.7546,4.7579,4.7616,4.7599,4.7604,4.7608,4.7615,4.7619,4.7579,4.7579,4.7579,0,4.8218,4.8158,4.8138,4.8056,4.8007,4.7969,4.7916,4.7876,4.7847,4.7766,4.7719,4.7672,4.7598,4.7561,4.7541,4.752,4.7503,4.7494,4.75,4.7494,4.7474,4.748,4.7485,4.7417,4.7417,4.7416,0,0,4.8191,4.8154,4.8065,4.8041,4.8015,4.7936,4.7907,4.7861,4.7798,4.7773,4.7709,4.7648,4.7598,4.7566,4.7515,4.7484,4.7462,4.7477,4.7484,4.7491,4.7489,4.7471,4.7477,4.7415,4.7415,4.7415,0,0,4.8176,4.8074,4.8043,4.8006,4.7951,4.7858,4.7845,4.7804,4.775,4.7744,4.766,4.764,4.7603,4.7556,4.7553,4.7499,4.7465,4.7464,4.753,4.7539,4.7546,4.7556,4.7483,0,0,0,0,0,4.8095,4.8087,4.806,4.8043,4.7934,4.7874,4.786,4.7792,4.7771,4.7763,4.7703,4.7654,4.7538,4.7534,4.7516,4.7518,4.7403,4.7406,4.7408,4.7485,4.7495,4.7503,0,0,0,0,0,0,4.8087,4.8067,4.806,4.7969,4.7944,4.7874,4.7823,4.7804,4.777,4.7762,4.7668,4.7651,4.759,4.7538,4.7523,4.7527,4.7488,4.7404,4.7406,4.7408,4.7489,4.7497,4.7504,0,0,0,0,0,4.8081,4.8065,4.7908,4.7968,4.7947,4.7855,4.7822,4.7806,4.7778,4.7683,4.7665,4.773,4.7592,4.7575,4.7529,4.7535,4.7498,4.7492,4.7405,4.7407,4.7408,4.7493,0,0,0,0,0,0,4.8077,4.8048,4.7902,4.7892,4.7965,4.7858,4.7839,4.7809,4.77,4.7683,4.7741,4.7736,4.7593,4.7579,4.7567,4.7542,4.7505,4.75,4.7497,4.7407,4.7408,4.7409,0,0,0,0,0,0,4.8057,4.8041,4.7897,4.7897,4.7887,4.786,4.7844,4.7793,4.7699,4.7764,4.7756,4.774,4.7611,4.7583,4.7573,4.7496,4.7511,4.7506,4.7503,4.7501,4.7407,4.7408,0,0,0,0,0,0,4.8049,4.8035,4.7899,4.7891,4.7882,4.7773,4.7814,4.7705,4.7704,4.777,4.7701,4.77,4.7616,4.7604,4.7577,4.7505,4.7498,4.7511,4.7508,4.7505,4.7504,0,0,0,0,0,0,0,4.8042,4.815,4.7957,4.7886,4.7879,4.7807,4.7804,4.7802,4.7703,4.7702,4.7701,4.7701,4.754,4.7535,4.7529,4.7513,0,0,4.7512,4.7509,0,0,0,0,0,0,0,0,4.8154,4.8151,4.7957,4.7955,4.7953,4.7807,4.7804,4.7802,4.7703,4.7702,4.7702,4.7701,4.7539,4.7534,4.753,0,0,0,0,0,0,0,0,0,0,0,0,0,0,0,4.7957,4.7955,0,4.7806,4.7804,4.7803,4.7703,4.7702,4.7702,4.7701,4.7537,4.7534,4.753,0,0,0,0,0,0,0,0,0,0,0,0,0,0,0,0,0,0,0,0,0,0,0,0,0,0,0,0,0,0,0,0,0,0,0,0,0,0,0,0,0,0,0,0,0,0,0,0,0,0,0,0,0,0,0,0,0,0,0,0,0,0,0,0,0,0,0,0,0]}]]]